Regional Weather Roundup
Issued by NWS

Home | Current Version | Previous Version | Graphics & Text | Print | Product List | Glossary On
Versions: 1 2 3 4 5 6 7 8 9 10 11 12 13 14 15 16 17 18 19 20 21 22 23 24 25 26 27 28 29 30 31 32 33 34 35 36 37 38 39 40 41 42 43 44 45 46 47 48 49 50
000
ASUS43 KDTX 282010
RWRMI
MICHIGAN HOURLY REGIONAL WEATHER ROUNDUP
NATIONAL WEATHER SERVICE DETROIT/PONTIAC MI
400 PM EDT FRI AUG 28 2015

NOTE: "FAIR" INDICATES FEW OR NO CLOUDS BELOW 12,000 FEET WITH NO
SIGNIFICANT WEATHER AND/OR OBSTRUCTION TO VISIBILITY.

MIZ047>049-052>055-059>063-066>070-074>076-081>083-282100-
SOUTHEAST LOWER MICHIGAN

CITY           SKY/WX    TMP DP  RH WIND       PRES   REMARKS
ADRIAN         CLOUDY    77  57  50 SW7       30.16F
ALMA           PTSUNNY   74  59  58 S3        30.14F
ANN ARBOR      PTSUNNY   74  59  59 SW7       30.15F
BAD AXE        PTSUNNY   71  55  58 S8        30.15F
CARO           PTSUNNY   72  58  60 SW5       30.15S
DETROIT CITY   PTSUNNY   75  56  51 CALM      30.15F
DETROIT        PTSUNNY   74  59  59 SE9       30.16F
FLINT          PTSUNNY   77  57  50 W6        30.15F
GROSSE ILE     MOSUNNY   72  63  73 SE7       30.15F
HILLSDALE      CLOUDY    75  60  58 SW6       30.16F
HOWELL         PTSUNNY   76  55  48 S6        30.15F

CITY           SKY/WX    TMP DP  RH WIND       PRES   REMARKS
JACKSON        CLOUDY    74  59  59 SW7       30.15F
LAMBERTVILLE   PTSUNNY   77  55  46 CALM      30.16F
LANSING        CLOUDY    76  58  53 SW8       30.14F
LAPEER         PTSUNNY   73  55  53 W3        30.15F
MASON          CLOUDY    74  56  53 S3        30.15F
MONROE         PTSUNNY   75  59  57 SE5       30.15F
MT. CLEMENS    PTSUNNY   73  59  62 S8        30.14F
PONTIAC        PTSUNNY   73  55  53 SW8       30.15F
PORT HOPE        N/A     68  61  78 NW9       30.14S
PORT HURON     MOSUNNY   73  57  56 SW6       30.16F
TRI CITIES     PTSUNNY   75  57  53 SW8       30.15F
MIDLAND        FAIR      74  57  54 W7        30.13F
TROY           MOSUNNY   76  55  47 S7        30.17F
SAGINAW HB     PTSUNNY   73  59  60 SW3       30.14S
$$
MIZ043>046-050>051-056>058-064>065-071>073-077>080-282100-
SOUTHWEST LOWER MICHIGAN

CITY           SKY/WX    TMP DP  RH WIND       PRES   REMARKS
BATTLE CREEK   PTSUNNY   76  60  57 W7        30.15F
BENTON HARBOR  CLOUDY    74  61  63 VRB6      30.13F
BIG RAPIDS     PTSUNNY   72  57  60 W6        30.13S
COLDWATER      CLOUDY    75  61  60 W3        30.15F
FREMONT        FAIR      73  58  59 SW6       30.13S
HOLLAND        CLOUDY    74  59  59 W6        30.14F
GRAND RAPIDS   PTSUNNY   75  59  57 SW10      30.14F
IONIA          FAIR      76  57  52 SW6       30.13F
KALAMAZOO      PTSUNNY   77  60  55 W7        30.14F
LUDINGTON      CLOUDY    71  60  68 SW12      30.12F
MARSHALL       PTSUNNY   76  61  58 W6        30.14F
MOUNT PLEASANT PTSUNNY   76  58  53 S6        30.13F
MUSKEGON       CLOUDY    72  60  66 S6        30.13F
SOUTH HAVEN    CLOUDY    74  60  63 W5        30.14S
$$
MIZ016>042-282100-
NORTHERN LOWER MICHIGAN

CITY           SKY/WX    TMP DP  RH WIND       PRES   REMARKS
ALPENA         PTSUNNY   75  53  46 SW8       30.10F
BEAVER ISLAND  CLOUDY    70  60  69 SW12G20   30.09S
BELLAIRE       PTSUNNY   76  55  48 SW8       30.09F
CADILLAC       MOSUNNY   73  56  55 SW7       30.12F
CHARLEVOIX     CLOUDY    73  62  68 W10       30.12F
FRANKFORT      MOSUNNY   71  60  67 SW10G16   30.10F
GAYLORD        PTSUNNY   72  56  57 SW8       30.12F
GRAYLING       PTSUNNY   73  55  53 S9        30.14S
HARBOR SPRINGS PTSUNNY   73  59  61 SW8       30.09S
HOUGHTON LAKE  PTSUNNY   72  55  55 SW6       30.14F
MANISTEE       PTSUNNY   72  54  53 SW9       30.12S
OSCODA         PTSUNNY   73  54  51 S12       30.13F
PELLSTON       PTSUNNY   74  57  55 SW12      30.09F
ROGERS CITY    PTSUNNY   74  59  59 E6        30.10S
TRAVERSE CITY  CLOUDY    76  57  51 SW10      30.09F
$$
MIZ007>008-015-282100-
EASTERN UPPER MICHIGAN

CITY           SKY/WX    TMP DP  RH WIND       PRES   REMARKS
KINROSS        PTSUNNY   73  61  64 SW13G22   30.07F
MACKINAC ISLAN PTSUNNY   70  56  60 W13G21    30.08F
NEWBERRY       PTSUNNY   72  59  64 SW18G25   30.05F
S. S. MARIE    PTSUNNY   73  60  63 SW12G21   30.06S
MUNISING         N/A     77  61  57 S12G20    29.99S
$$
MIZ004>006-011>014-085-282100-
CENTRAL UPPER MICHIGAN

CITY           SKY/WX    TMP DP  RH WIND       PRES   REMARKS
MANISTIQUE     PTSUNNY   68  61  78 S12G18    30.06F
ESCANABA       PTSUNNY   70  61  73 S16G24    30.03F
MENOMINEE      CLOUDY    72  61  68 SW14      30.05S
SAWYER-GWINN   PTSUNNY   75  61  60 SW13G18   30.01F
$$
MIZ001>003-009>011-084-282100-
WESTERN UPPER MICHIGAN

CITY           SKY/WX    TMP DP  RH WIND       PRES   REMARKS
IRON MOUNTAIN  CLOUDY    74  63  68 S9        30.02F
HOUGHTON       CLOUDY    72  62  71 W9        29.96F
COPPER HARBOR    N/A     74  62  66 VRB6      29.95F
IRONWOOD       PTSUNNY   75  64  69 SW13      29.97R
$$

ABBREVIATIONS USED IN REMARKS
   TC - TEMPERATURE IN CELSIUS
  WCI - WIND CHILL INDEX
   HX - HEAT INDEX
  VSB - VISIBILITY




USA.gov is the U.S. government's official web portal to all federal, state and local government web resources and services.